Barrow, AK

7:41 PM AKDT on June 22, 2018 (GMT -0800)
Wiley Post-Will Rogers Memorial

Weather History for PABR - November, 2017

Change the Weather History Date:

Saturday, November 11, 2017

  Actual Average Record
Temperature  
Mean Temperature 26 °F 2 °F  
Max Temperature 32 °F 8 °F 39 °F (1937)
Min Temperature 20 °F -3 °F -27 °F (1955)
Degree Days  
Heating Degree Days 39 63  
Month to date heating degree days 317 663  
Since 1 July heating degree days 3817 4686  
Cooling Degree Days 0 0  
Month to date cooling degree days 0 0  
Year to date cooling degree days 0 0  
Moisture  
Dew Point 24 °F    
Average Humidity 90    
Maximum Humidity 100    
Minimum Humidity 69    
Precipitation  
Precipitation 0.17 in 0.01 in 0.17 in (2017)
Month to date precipitation 0.59 0.09  
Year to date precipitation 7.63 4.27  
Sea Level Pressure  
Sea Level Pressure 29.87 in    
Wind  
Wind Speed 21 mph (SSW)    
Max Wind Speed 32 mph    
Max Gust Speed 38 mph    
Visibility 3 miles    
Events Fog , Snow    
T = Trace of Precipitation, MM = Missing Value Source: NWS Daily Summary

Daily Weather History Graph

Daily Weather History Graph

Search for Another Location

Airport or City:

Astronomy

Nov. 11, 2017 Rise Set
Actual Time 11:23 AM AKST 2:57 PM AKST
Civil Twilight 9:37 AM AKST 4:43 PM AKST
Nautical Twilight 8:10 AM AKST 6:10 PM AKST
Astronomical Twilight 6:54 AM AKST 7:26 PM AKST
Moon No Moon Rise 4:48 PM AKST (11/11)
Length of Visible Light 7h 06m
Length of Day
3h 34m
Last Quarter, 39% of the Moon is Illuminated
Nov 11
Last Quarter
Nov 18
New
Nov 26
First Quarter
Dec 3
Full
Dec 9
Last Quarter

Hourly Weather History & Observations

Time (AKST) Temp. Windchill Dew Point Humidity Pressure Visibility Wind Dir Wind Speed Gust Speed Precip Events Conditions
12:53 AM 30.9 °F 18.7 °F 23.0 °F 72% 30.04 in 9.0 mi WNW 19.6 mph - 0.00 in Snow Light Snow
1:53 AM 30.9 °F 18.4 °F 21.9 °F 69% 30.05 in 9.0 mi West 20.7 mph - 0.00 in Snow Light Snow
2:27 AM 30.0 °F 16.9 °F 27.0 °F 88% 30.06 in 2.0 mi WSW 21.9 mph - 0.00 in Snow Light Snow
2:32 AM 30.0 °F 17.9 °F 27.0 °F 88% 30.06 in 0.8 mi West 18.4 mph - 0.03 in Snow Light Snow
2:36 AM 30.0 °F 17.5 °F 28.0 °F 92% 30.06 in 0.8 mi WNW 19.6 mph - 0.04 in Snow Light Snow
2:42 AM 28.9 °F 16.9 °F 27.0 °F 92% 30.06 in 1.0 mi West 17.3 mph - 0.04 in Snow Light Snow
2:48 AM 30.2 °F 18.1 °F 26.6 °F 86% 30.06 in 4.0 mi West 18.4 mph - 0.05 in Snow Light Snow
2:53 AM 30.0 °F 18.3 °F 26.1 °F 85% 30.07 in 9.0 mi West 17.3 mph - 0.05 in Snow Light Snow
3:01 AM 30.0 °F 17.2 °F 25.0 °F 82% 30.07 in 9.0 mi West 20.7 mph - 0.00 in Snow Light Snow
3:15 AM 28.9 °F 15.1 °F 26.1 °F 89% 30.07 in 1.5 mi WSW 23.0 mph 29.9 mph 0.00 in Snow Light Snow
3:28 AM 28.9 °F 18.2 °F 27.0 °F 92% 30.08 in 4.0 mi West 13.8 mph - 0.00 in Snow Light Snow
3:40 AM 30.0 °F 17.2 °F 27.0 °F 88% 30.07 in 6.0 mi WNW 20.7 mph - 0.00 in Snow Light Snow
3:48 AM 30.2 °F 16.8 °F 26.6 °F 86% 30.07 in 6.0 mi WNW 23.0 mph - 0.00 in Snow Light Snow
3:53 AM 30.0 °F 16.6 °F 26.1 °F 85% 30.08 in 6.0 mi WNW 23.0 mph - 0.00 in Snow Light Snow
4:15 AM 30.0 °F 18.3 °F 26.1 °F 85% 30.07 in 2.5 mi West 17.3 mph 25.3 mph 0.00 in Snow Light Snow
4:21 AM 30.0 °F 17.2 °F 27.0 °F 88% 30.07 in 0.8 mi West 20.7 mph 27.6 mph 0.00 in Snow Light Snow
4:28 AM 28.9 °F 14.0 °F 28.0 °F 96% 30.07 in 0.2 mi West 27.6 mph 31.1 mph 0.01 in Snow Light Snow
4:42 AM 28.9 °F 17.3 °F 28.0 °F 96% 30.08 in 0.5 mi West 16.1 mph - 0.03 in Snow Light Snow
4:53 AM 30.0 °F 17.2 °F 28.9 °F 96% 30.08 in 0.5 mi West 20.7 mph 31.1 mph 0.04 in Snow Light Snow
5:03 AM 28.9 °F 14.5 °F 26.1 °F 89% 30.07 in 0.8 mi West 25.3 mph - 0.00 in Snow Light Snow
5:07 AM 30.0 °F 16.6 °F 26.1 °F 85% 30.07 in 1.5 mi West 23.0 mph 32.2 mph 0.00 in Snow Light Snow
5:33 AM 30.0 °F 16.3 °F 27.0 °F 88% 30.08 in 2.0 mi West 24.2 mph 31.1 mph 0.01 in Snow Light Snow
5:39 AM 28.9 °F 14.0 °F 27.0 °F 92% 30.08 in 0.8 mi West 27.6 mph 33.4 mph 0.01 in Snow Light Snow
5:49 AM 28.4 °F 12.3 °F 26.6 °F 93% 30.07 in 0.5 mi WSW 32.2 mph 38.0 mph 0.01 in Snow Light Snow
5:53 AM 28.9 °F 13.0 °F 26.1 °F 89% 30.08 in 0.8 mi WSW 32.2 mph 38.0 mph 0.01 in Snow Light Snow
6:15 AM 28.9 °F 13.5 °F 26.1 °F 89% 30.08 in 3.0 mi WSW 29.9 mph - 0.01 in Snow Light Snow
6:53 AM 28.9 °F 15.1 °F 21.9 °F 75% 30.08 in 3.0 mi WSW 23.0 mph - 0.01 in Snow Light Snow
7:53 AM 28.0 °F 13.9 °F 25.0 °F 88% 30.08 in 5.0 mi WSW 23.0 mph - 0.00 in Snow Light Snow
8:53 AM 28.0 °F 16.1 °F 19.9 °F 72% 30.08 in 10.0 mi SW 16.1 mph - 0.00 in Snow Blowing Snow
9:53 AM 21.0 °F 7.1 °F 17.1 °F 85% 30.06 in 10.0 mi South 16.1 mph - N/A Snow Blowing Snow
10:53 AM 19.9 °F 6.2 °F 16.0 °F 85% 30.04 in 10.0 mi South 15.0 mph - N/A Snow Blowing Snow
11:53 AM 21.0 °F 8.1 °F 17.1 °F 85% 30.02 in 10.0 mi South 13.8 mph - N/A Snow Blowing Snow
12:53 PM 21.0 °F 8.1 °F 16.0 °F 81% 29.99 in 10.0 mi South 13.8 mph - N/A Snow Blowing Snow
1:53 PM 21.0 °F 7.6 °F 16.0 °F 81% 29.95 in 10.0 mi South 15.0 mph - N/A Snow Blowing Snow
2:48 PM 19.4 °F 5.0 °F 17.6 °F 93% 29.91 in 2.5 mi SSE 16.1 mph - N/A Snow Blowing Snow
2:53 PM 19.9 °F 5.7 °F 17.1 °F 89% 29.91 in 2.5 mi SSE 16.1 mph - N/A Snow Blowing Snow
3:08 PM 19.9 °F 5.7 °F 18.0 °F 92% 29.88 in 1.8 mi SSE 16.1 mph - 0.00 in Snow Light Snow
3:49 PM 21.2 °F 6.4 °F 19.4 °F 93% 29.84 in 2.0 mi SSE 18.4 mph - 0.00 in Snow Light Snow
3:53 PM 21.0 °F 6.2 °F 19.0 °F 92% 29.84 in 1.5 mi SSE 18.4 mph - 0.00 in Snow Light Snow
4:53 PM 21.9 °F 6.5 °F 19.9 °F 92% 29.79 in 1.5 mi SSE 20.7 mph - 0.00 in Snow Light Snow
5:49 PM 23.0 °F 7.6 °F 21.2 °F 93% 29.75 in 0.8 mi SSE 21.9 mph - 0.01 in Snow Light Snow
5:53 PM 23.0 °F 7.2 °F 21.9 °F 96% 29.75 in 0.8 mi SSE 23.0 mph - 0.01 in Snow Light Snow
6:06 PM 24.1 °F 9.0 °F 21.9 °F 91% 29.73 in 0.5 mi SSE 21.9 mph - 0.00 in Fog , Snow Snow
6:16 PM 24.1 °F 9.0 °F 21.9 °F 91% 29.72 in 0.8 mi SSE 21.9 mph - 0.00 in Snow Light Snow
6:53 PM 24.1 °F 9.4 °F 23.0 °F 96% 29.70 in 1.0 mi South 20.7 mph - 0.01 in Snow Light Snow
7:01 PM 25.0 °F 9.5 °F 23.0 °F 92% 29.68 in 0.8 mi SSE 24.2 mph - 0.01 in Snow Light Snow
7:47 PM 24.8 °F 9.3 °F 24.8 °F 100% 29.64 in 1.0 mi South 24.2 mph - 0.01 in Snow Light Snow
7:48 PM 25.0 °F 9.9 °F 24.1 °F 96% 29.65 in 1.0 mi South 23.0 mph - 0.01 in Snow Light Snow
8:44 PM 26.1 °F 10.7 °F 25.0 °F 96% 29.60 in 1.5 mi South 25.3 mph - 0.01 in Snow Light Snow
8:53 PM 26.1 °F 11.0 °F 24.1 °F 92% 29.60 in 2.0 mi South 24.2 mph - 0.01 in Snow Light Snow
9:12 PM 26.1 °F 11.0 °F 25.0 °F 96% 29.58 in 4.0 mi South 24.2 mph - 0.00 in Snow Light Snow
9:20 PM 26.1 °F 11.0 °F 25.0 °F 96% 29.58 in 4.0 mi South 24.2 mph - 0.00 in Snow Light Snow
9:40 PM 26.1 °F 11.3 °F 25.0 °F 96% 29.56 in 1.8 mi South 23.0 mph - 0.00 in Snow Light Snow
9:53 PM 27.0 °F 12.5 °F 25.0 °F 92% 29.56 in 1.5 mi South 23.0 mph - 0.00 in Snow Light Snow
10:05 PM 27.0 °F 12.2 °F 26.1 °F 96% 29.55 in 0.8 mi South 24.2 mph - 0.00 in Snow Light Snow
10:15 PM 27.0 °F 12.2 °F 26.1 °F 96% 29.54 in 1.0 mi South 24.2 mph - 0.01 in Snow Light Snow
10:48 PM 26.6 °F 11.4 °F 26.6 °F 100% 29.52 in 0.8 mi South 25.3 mph - 0.01 in Snow Light Snow
10:53 PM 27.0 °F 12.2 °F 26.1 °F 96% 29.52 in 0.8 mi South 24.2 mph - 0.01 in Snow Light Snow
11:02 PM 27.0 °F 11.6 °F 26.1 °F 96% 29.51 in 0.8 mi South 26.5 mph - 0.01 in Snow Light Snow
11:12 PM 27.0 °F 11.6 °F 26.1 °F 96% 29.50 in 1.0 mi South 26.5 mph - 0.01 in Snow Light Snow
11:26 PM 27.0 °F 11.9 °F 26.1 °F 96% 29.49 in 2.0 mi South 25.3 mph - 0.01 in Snow Light Snow
11:40 PM 28.0 °F 13.0 °F 26.1 °F 92% 29.48 in 2.0 mi South 26.5 mph - 0.01 in Snow Light Snow
11:53 PM 28.0 °F 13.6 °F 26.1 °F 92% 29.48 in 1.8 mi South 24.2 mph - 0.01 in Snow Light Snow